User: anonymous   Login
Location: �mondeville
(49.4591°N, 1.3431°W)
Time: 20:48:31
(UTC+00:00)
Language:

Cosmos 44 Rocket - Orbit

View from above orbital plane
View from above orbital plane
View from above satellite
View from above satellite

Ground track
Ground track

The orbit data is extracted from the following two-line orbital elements,

1   877U 64053B   19346.88301993 -.00000113 +00000-0 +13928-5 0  9998
2   877 065.0766 157.0811 0051325 121.5028 239.1100 14.59378141934120
Epoch (UTC): 12 December 2019 21:11:32
Eccentricity: 0.0051325
inclination: 65.0766°
perigee height: 659 km
apogee height: 731 km
right ascension of ascending node: 157.0811°
argument of perigee: 121.5028°
revolutions per day: 14.59378141
mean anomaly at epoch: 239.1100°
orbit number at epoch: 93412

The dashed part of the orbit path shows where the satellite is in the earth's shadow,  

DLR